TimeEST,TemperatureF,Dew PointF,Humidity,Sea Level PressureIn,VisibilityMPH,Wind Direction,Wind SpeedMPH,Gust SpeedMPH,PrecipitationIn,Events,Conditions,WindDirDegrees,DateUTC
12:56 AM,12.0,-0.9,56,30.27,10.0,West,6.9,-,N/A,,Clear,270,2013-01-23 05:56:00
1:56 AM,10.9,-0.9,59,30.28,10.0,West,6.9,-,N/A,,Clear,270,2013-01-23 06:56:00
2:56 AM,10.9,-0.9,59,30.29,10.0,West,5.8,-,N/A,,Clear,260,2013-01-23 07:56:00
3:56 AM,10.9,-0.9,59,30.28,10.0,West,8.1,-,N/A,,Clear,270,2013-01-23 08:56:00
4:56 AM,10.0,-0.9,61,30.29,10.0,West,5.8,-,N/A,,Clear,260,2013-01-23 09:56:00
5:56 AM,9.0,-0.9,64,30.30,10.0,West,3.5,-,N/A,,Clear,270,2013-01-23 10:56:00
6:56 AM,10.0,-0.9,61,30.30,10.0,WSW,5.8,-,N/A,,Clear,250,2013-01-23 11:56:00
7:56 AM,10.9,-0.0,61,30.31,10.0,West,8.1,-,N/A,,Clear,260,2013-01-23 12:56:00
8:56 AM,12.9,-0.0,56,30.32,10.0,WSW,10.4,-,N/A,,Clear,250,2013-01-23 13:56:00
10:56 AM,18.0,-0.9,44,30.32,10.0,West,10.4,-,N/A,,Mostly Cloudy,280,2013-01-23 15:56:00
11:56 AM,18.0,-2.0,41,30.28,10.0,West,11.5,18.4,N/A,,Overcast,260,2013-01-23 16:56:00
12:56 PM,18.0,-2.9,40,30.25,10.0,West,8.1,18.4,N/A,,Overcast,280,2013-01-23 17:56:00
1:56 PM,19.0,-2.9,38,30.23,10.0,WNW,9.2,-,N/A,,Overcast,290,2013-01-23 18:56:00
2:56 PM,19.0,-4.0,36,30.23,10.0,West,11.5,24.2,N/A,,Mostly Cloudy,280,2013-01-23 19:56:00
3:56 PM,19.9,-2.9,37,30.22,10.0,West,6.9,-,N/A,,Overcast,280,2013-01-23 20:56:00
4:56 PM,19.0,-4.0,36,30.22,10.0,West,10.4,-,N/A,,Partly Cloudy,260,2013-01-23 21:56:00
5:56 PM,17.1,-2.9,41,30.22,10.0,WNW,4.6,-,N/A,,Clear,290,2013-01-23 22:56:00
6:56 PM,17.1,-2.0,43,30.22,10.0,Calm,Calm,-,N/A,,Mostly Cloudy,0,2013-01-23 23:56:00
7:56 PM,12.9,1.0,59,30.21,10.0,WSW,4.6,-,N/A,,Clear,250,2013-01-24 00:56:00
8:56 PM,12.9,1.9,62,30.21,10.0,Calm,Calm,-,N/A,,Partly Cloudy,0,2013-01-24 01:56:00
9:56 PM,10.9,1.9,67,30.21,10.0,Calm,Calm,-,N/A,,Scattered Clouds,0,2013-01-24 02:56:00
10:56 PM,12.0,3.9,70,30.20,10.0,Calm,Calm,-,N/A,,Overcast,0,2013-01-24 03:56:00
11:56 PM,14.0,6.1,71,30.17,10.0,Calm,Calm,-,N/A,,Overcast,0,2013-01-24 04:56:00